Terminal Aerodrome Forecast
Issued by NWS

Home | Current Version | Previous Version | Text Only | Print | Product List | Glossary On
Versions: 1 2 3 4 5 6 7 8 9 10 11 12
876
FTUS44 KSJT 090524
TAFBBD
TAF
KBBD 090524Z 0906/1006 29004KT P6SM FEW250
     FM091800 29010KT P6SM FEW250
     FM100000 VRB05KT P6SM FEW250
      AMD NOT SKED=

USA.gov is the U.S. government's official web portal to all federal, state and local government web resources and services.